Location: Newark
(35.2672°N, 80.7344°W)
Time: 00:19:23
(UTC+00:00)

Vanguard 2 Rocket - Pass Details

Date: 24 January 2020
Orbit: 553 x 3327 km, 32.9° (Epoch: 24 February)

Event Time Altitude Azimuth Distance (km) Brightness Sun altitude
Rises 10:27:47 0° 242° (WSW) 2,751 - -24.4°
Reaches altitude 10° 10:29:49 10° 236° (SW) 1,938 - -24.0°
Exits shadow 10:32:38 37° 206° (SSW) 1,046 7.0 -23.4°
Maximum altitude 10:33:55 48° 161° (SSE) 945 7.1 -23.2°
Drops below altitude 10° 10:39:58 10° 88° (E) 2,832 10.5 -21.9°
Sets 10:43:30 0° 84° (E) 4,204 11.7 -21.2°
